Location: ??
(35.4032°N, 139.3073°E)
Time: 13:54:02
(UTC+00:00)

BlueWalker 3 - Visible Passes

Search period start: 21 June 2024 00:00
Search period end: 01 July 2024 00:00
Orbit: 480 x 494 km, 53.2° (Epoch: 21 June)

Date Brightness Start Highest point End Pass type
(mag) Time Alt. Az. Time Alt. Az. Time Alt. Az.
21 Jun 3.6 11:02:46 10° WSW 11:06:14 36° NW 11:09:43 10° NNE visible
21 Jun 5.4 16:04:14 10° N 16:05:06 11° NNE 16:05:57 10° NE visible
21 Jun 2.5 17:40:16 10° NW 17:43:57 56° NE 17:47:37 10° ESE visible
22 Jun 3.5 10:37:00 10° WSW 10:40:31 38° NW 10:44:03 10° NNE visible
22 Jun 5.4 15:39:00 10° NNE 15:39:20 10° NNE 15:39:41 10° NNE visible
22 Jun 2.7 17:14:34 10° NW 17:18:14 51° NE 17:21:52 10° ESE visible
22 Jun 3.5 18:53:57 10° W 18:56:01 14° SW 18:58:06 10° SSW visible
23 Jun 2.8 16:48:53 10° NW 16:52:31 47° NE 16:56:07 10° ESE visible
23 Jun 3.5 18:28:02 10° W 18:32:32 10° SSW 18:32:38 10° SSW visible
24 Jun 3.6 16:23:11 10° NNW 16:25:25 30° N 16:25:25 30° N visible
25 Jun 4.3 15:57:29 10° NNW 15:58:41 18° NNW 15:58:41 18° NNW visible
26 Jun 5.3 10:35:43 10° NW 10:36:27 10° NNW 10:37:10 10° NNW visible
26 Jun 4.6 15:31:47 10° NNW 15:32:39 16° NNW 15:32:39 16° NNW visible
27 Jun 4.7 15:06:04 10° NNW 15:06:56 15° NNW 15:06:56 15° NNW visible
28 Jun 4.7 14:40:21 10° NNW 14:41:24 17° NNW 14:41:24 17° NNW visible
29 Jun 4.6 14:14:37 10° NNW 14:15:58 18° NNW 14:15:58 18° NNW visible
30 Jun 4.4 13:48:54 10° NNW 13:50:39 21° N 13:50:39 21° N visible
